User: anonymous   Login
Location: Carri�res
(48.9069°N, 2.1792°E)
Time: 15:27:14
(UTC+00:00)
Language:

Meteor 2-13 Rocket - Orbit

View from above orbital plane
View from above orbital plane
View from above satellite
View from above satellite

Ground track
Ground track

The orbit data is extracted from the following two-line orbital elements,

1 16409U 85119B   21105.11519478  .00000025  00000-0  88040-5 0  9991
2 16409  82.5364 326.5789 0016091  63.2294 297.0511 13.84816932784305
Epoch (UTC): 15 April 2021 02:45:52
Eccentricity: 0.0016091
inclination: 82.5364°
perigee height: 935 km
apogee height: 958 km
right ascension of ascending node: 326.5789°
argument of perigee: 63.2294°
revolutions per day: 13.84816932
mean anomaly at epoch: 297.0511°
orbit number at epoch: 78430

The dashed part of the orbit path shows where the satellite is in the earth's shadow,  

DLR